| time (UTC) | temp F | wind direction | speed MPH | gust MPH | rain 1hr in | rain 24hr in | rain mn in | humidity % | barometer mb |
| 20260510194524 | 86 | 179 | 8.0 | 12.0 | 0.00 | 0.00 | 0.00 | 56 | 1012.1 |
| 20260510194316 | 86 | 138 | 7.0 | 12.0 | 0.00 | 0.00 | 0.00 | 56 | 1014.7 |
| 20260510194009 | 85 | 172 | 5.0 | 14.0 | 0.00 | 0.00 | 0.00 | 57 | 1012.1 |
| 20260510193852 | 86 | 122 | 3.0 | 14.0 | 0.00 | 0.00 | 0.00 | 57 | 1014.8 |
| 20260510193544 | 85 | 132 | 7.0 | 12.0 | 0.00 | 0.00 | 0.00 | 57 | 1012.2 |
| 20260510193328 | 86 | 152 | 10.0 | 12.0 | 0.00 | 0.00 | 0.00 | 56 | 1014.7 |
| 20260510193040 | 86 | 166 | 3.0 | 12.0 | 0.00 | 0.00 | 0.00 | 55 | 1012.2 |
| 20260510192824 | 86 | 148 | 9.0 | 12.0 | 0.00 | 0.00 | 0.00 | 55 | 1014.8 |
| 20260510192528 | 86 | 182 | 7.0 | 14.0 | 0.00 | 0.00 | 0.00 | 57 | 1012.3 |
| 20260510192340 | 86 | 142 | 6.0 | 14.0 | 0.00 | 0.00 | 0.00 | 58 | 1014.8 |
| 20260510192053 | 85 | 187 | 6.0 | 14.0 | 0.00 | 0.00 | 0.00 | 58 | 1012.3 |
| 20260510191815 | 86 | 145 | 11.0 | 14.0 | 0.00 | 0.00 | 0.00 | 57 | 1014.8 |
| 20260510191549 | 86 | 139 | 10.0 | 15.0 | 0.00 | 0.00 | 0.00 | 59 | 1012.3 |
| 20260510191327 | 86 | 147 | 5.0 | 11.0 | 0.00 | 0.00 | 0.00 | 59 | 1014.7 |
| 20260510191037 | 86 | 133 | 8.0 | 14.0 | 0.00 | 0.00 | 0.00 | 61 | 1012.2 |
| 20260510190844 | 86 | 136 | 6.0 | 14.0 | 0.00 | 0.00 | 0.00 | 63 | 1014.7 |
| 20260510190502 | 85 | 164 | 9.0 | 17.0 | 0.00 | 0.00 | 0.00 | 60 | 1012.1 |
| 20260510190320 | 85 | 143 | 8.0 | 19.0 | 0.00 | 0.00 | 0.00 | 61 | 1014.8 |
| 20260510190057 | 84 | 151 | 11.0 | 19.0 | 0.00 | 0.00 | 0.00 | 61 | 1012.1 |
| 20260510185816 | 85 | 143 | 11.0 | 19.0 | 0.00 | 0.00 | 0.00 | 62 | 1014.7 |
| 20260510185547 | 84 | 191 | 9.0 | 18.0 | 0.00 | 0.00 | 0.00 | 61 | 1012.0 |
| 20260510185332 | 85 | 137 | 8.0 | 18.0 | 0.00 | 0.00 | 0.00 | 62 | 1014.7 |
| 20260510185038 | 84 | 172 | 11.0 | 18.0 | 0.00 | 0.00 | 0.00 | 64 | 1012.2 |
| 20260510184828 | 85 | 155 | 13.0 | 18.0 | 0.00 | 0.00 | 0.00 | 63 | 1014.6 |
| 20260510184533 | 84 | 142 | 7.0 | 17.0 | 0.00 | 0.00 | 0.00 | 62 | 1012.2 |
| 20260510184324 | 84 | 105 | 10.0 | 17.0 | 0.00 | 0.00 | 0.00 | 62 | 1014.6 |
| 20260510184027 | 84 | 160 | 12.0 | 17.0 | 0.00 | 0.00 | 0.00 | 62 | 1012.1 |
| 20260510183819 | 85 | 136 | 10.0 | 16.0 | 0.00 | 0.00 | 0.00 | 62 | 1014.7 |
| 20260510183520 | 84 | 184 | 10.0 | 16.0 | 0.00 | 0.00 | 0.00 | 62 | 1012.2 |
| 20260510183337 | 85 | 174 | 13.0 | 16.0 | 0.00 | 0.00 | 0.00 | 62 | 1014.8 |
| 20260510183048 | 84 | 180 | 4.0 | 18.0 | 0.00 | 0.00 | 0.00 | 63 | 1012.3 |
| 20260510182831 | 84 | 180 | 8.0 | 18.0 | 0.00 | 0.00 | 0.00 | 63 | 1014.9 |
| 20260510182541 | 84 | 152 | 12.0 | 18.0 | 0.00 | 0.00 | 0.00 | 63 | 1012.5 |
| 20260510182327 | 84 | 158 | 7.0 | 17.0 | 0.00 | 0.00 | 0.00 | 64 | 1014.9 |
| 20260510182037 | 84 | 163 | 10.0 | 17.0 | 0.00 | 0.00 | 0.00 | 64 | 1012.5 |
| 20260510181843 | 84 | 137 | 12.0 | 17.0 | 0.00 | 0.00 | 0.00 | 64 | 1014.9 |
| 20260510181506 | 84 | 168 | 7.0 | 18.0 | 0.00 | 0.00 | 0.00 | 64 | 1012.4 |
| 20260510181317 | 84 | 147 | 7.0 | 15.0 | 0.00 | 0.00 | 0.00 | 64 | 1014.9 |
| 20260510181102 | 84 | 146 | 10.0 | 15.0 | 0.00 | 0.00 | 0.00 | 64 | 1012.5 |
| 20260510180854 | 84 | 172 | 10.0 | 15.0 | 0.00 | 0.00 | 0.00 | 63 | 1015.0 |
| 20260510180532 | 84 | 156 | 9.0 | 14.0 | 0.00 | 0.00 | 0.00 | 63 | 1012.5 |
| 20260510180328 | 85 | 159 | 3.0 | 19.0 | 0.00 | 0.00 | 0.00 | 65 | 1015.1 |
| 20260510180016 | 84 | 140 | 9.0 | 19.0 | 0.00 | 0.00 | 0.00 | 65 | 1012.6 |
| 20260510175824 | 84 | 147 | 10.0 | 19.0 | 0.00 | 0.00 | 0.00 | 65 | 1015.1 |
| 20260510175547 | 84 | 146 | 8.0 | 20.0 | 0.00 | 0.00 | 0.00 | 66 | 1012.6 |
| 20260510175340 | 84 | 158 | 7.0 | 20.0 | 0.00 | 0.00 | 0.00 | 66 | 1015.1 |
| 20260510175021 | 83 | 197 | 9.0 | 20.0 | 0.00 | 0.00 | 0.00 | 64 | 1012.6 |
| 20260510174815 | 84 | 154 | 14.0 | 20.0 | 0.00 | 0.00 | 0.00 | 65 | 1015.3 |
| 20260510174503 | 83 | 139 | 6.0 | 14.0 | 0.00 | 0.00 | 0.00 | 67 | 1012.8 |
| 20260510174332 | 83 | 139 | 8.0 | 14.0 | 0.00 | 0.00 | 0.00 | 66 | 1015.3 |
| 20260510174103 | 83 | 168 | 9.0 | 14.0 | 0.00 | 0.00 | 0.00 | 66 | 1012.8 |
| 20260510173828 | 83 | 183 | 8.0 | 14.0 | 0.00 | 0.00 | 0.00 | 67 | 1015.3 |
| 20260510173548 | 83 | 153 | 8.0 | 15.0 | 0.00 | 0.00 | 0.00 | 66 | 1012.8 |
| 20260510173324 | 83 | 160 | 11.0 | 15.0 | 0.00 | 0.00 | 0.00 | 67 | 1015.4 |
| 20260510173039 | 83 | 124 | 9.0 | 18.0 | 0.00 | 0.00 | 0.00 | 67 | 1012.8 |
| 20260510172819 | 83 | 121 | 10.0 | 18.0 | 0.00 | 0.00 | 0.00 | 67 | 1015.4 |
| 20260510172533 | 82 | 149 | 7.0 | 18.0 | 0.00 | 0.00 | 0.00 | 67 | 1012.9 |
| 20260510172335 | 83 | 130 | 11.0 | 18.0 | 0.00 | 0.00 | 0.00 | 67 | 1015.4 |
| 20260510172059 | 82 | 119 | 8.0 | 17.0 | 0.00 | 0.00 | 0.00 | 68 | 1012.9 |
| 20260510171829 | 83 | 130 | 10.0 | 17.0 | 0.00 | 0.00 | 0.00 | 67 | 1015.5 |
| 20260510171551 | 82 | 162 | 5.0 | 14.0 | 0.00 | 0.00 | 0.00 | 67 | 1013.0 |
| 20260510171324 | 82 | 161 | 8.0 | 14.0 | 0.00 | 0.00 | 0.00 | 69 | 1015.4 |
| 20260510171040 | 82 | 168 | 8.0 | 16.0 | 0.00 | 0.00 | 0.00 | 68 | 1013.0 |
| 20260510170821 | 82 | 153 | 9.0 | 19.0 | 0.00 | 0.00 | 0.00 | 70 | 1015.4 |
| 20260510170535 | 82 | 140 | 9.0 | 19.0 | 0.00 | 0.00 | 0.00 | 69 | 1012.9 |
| 20260510170317 | 82 | 158 | 10.0 | 19.0 | 0.00 | 0.00 | 0.00 | 68 | 1015.4 |
| 20260510170021 | 82 | 131 | 9.0 | 20.0 | 0.00 | 0.00 | 0.00 | 69 | 1012.9 |
| 20260510165850 | 82 | 162 | 5.0 | 16.0 | 0.00 | 0.00 | 0.00 | 69 | 1015.4 |
| 20260510165551 | 81 | 153 | 4.0 | 16.0 | 0.00 | 0.00 | 0.00 | 70 | 1012.9 |
| 20260510165326 | 82 | 146 | 8.0 | 16.0 | 0.00 | 0.00 | 0.00 | 69 | 1015.5 |
| 20260510165040 | 81 | 150 | 9.0 | 15.0 | 0.00 | 0.00 | 0.00 | 70 | 1012.9 |
| 20260510164821 | 82 | 114 | 6.0 | 15.0 | 0.00 | 0.00 | 0.00 | 70 | 1015.4 |
| 20260510164544 | 81 | 160 | 10.0 | 15.0 | 0.00 | 0.00 | 0.00 | 70 | 1012.8 |
| 20260510164319 | 82 | 138 | 6.0 | 13.0 | 0.00 | 0.00 | 0.00 | 72 | 1015.4 |
| 20260510164025 | 81 | 152 | 8.0 | 13.0 | 0.00 | 0.00 | 0.00 | 71 | 1013.0 |
| 20260510163815 | 82 | 147 | 6.0 | 14.0 | 0.00 | 0.00 | 0.00 | 72 | 1015.4 |
| 20260510163511 | 81 | 131 | 4.0 | 9.0 | 0.00 | 0.00 | 0.00 | 72 | 1012.9 |
| 20260510163331 | 81 | 133 | 5.0 | 10.0 | 0.00 | 0.00 | 0.00 | 73 | 1015.5 |
| 20260510163006 | 81 | 114 | 4.0 | 12.0 | 0.00 | 0.00 | 0.00 | 73 | 1013.0 |
| 20260510162826 | 81 | 154 | 5.0 | 12.0 | 0.00 | 0.00 | 0.00 | 73 | 1015.5 |
| 20260510162601 | 80 | 122 | 6.0 | 12.0 | 0.00 | 0.00 | 0.00 | 74 | 1013.0 |
| 20260510162323 | 81 | 73 | 8.0 | 15.0 | 0.00 | 0.00 | 0.00 | 72 | 1015.5 |
| 20260510162053 | 80 | 152 | 6.0 | 15.0 | 0.00 | 0.00 | 0.00 | 73 | 1013.1 |
| 20260510161819 | 80 | 151 | 7.0 | 15.0 | 0.00 | 0.00 | 0.00 | 74 | 1015.6 |
| 20260510161547 | 80 | 154 | 9.0 | 15.0 | 0.00 | 0.00 | 0.00 | 74 | 1013.2 |
| 20260510161313 | 80 | 133 | 8.0 | 12.0 | 0.00 | 0.00 | 0.00 | 74 | 1015.7 |
| 20260510161037 | 80 | 166 | 3.0 | 11.0 | 0.00 | 0.00 | 0.00 | 75 | 1013.2 |
| 20260510160829 | 80 | 120 | 6.0 | 11.0 | 0.00 | 0.00 | 0.00 | 74 | 1015.6 |
| 20260510160529 | 79 | 149 | 4.0 | 11.0 | 0.00 | 0.00 | 0.00 | 75 | 1013.2 |
| 20260510160325 | 80 | 120 | 5.0 | 13.0 | 0.00 | 0.00 | 0.00 | 75 | 1015.6 |
| 20260510160023 | 79 | 125 | 5.0 | 13.0 | 0.00 | 0.00 | 0.00 | 75 | 1013.2 |
| 20260510155840 | 79 | 133 | 7.0 | 13.0 | 0.00 | 0.00 | 0.00 | 76 | 1015.7 |
| 20260510155548 | 79 | 158 | 6.0 | 13.0 | 0.00 | 0.00 | 0.00 | 74 | 1013.2 |
| 20260510155315 | 79 | 143 | 5.0 | 10.0 | 0.00 | 0.00 | 0.00 | 75 | 1015.6 |
| 20260510155039 | 79 | 113 | 3.0 | 10.0 | 0.00 | 0.00 | 0.00 | 76 | 1013.2 |
| 20260510154830 | 79 | 166 | 5.0 | 11.0 | 0.00 | 0.00 | 0.00 | 76 | 1015.6 |
| 20260510154544 | 78 | 152 | 3.0 | 11.0 | 0.00 | 0.00 | 0.00 | 77 | 1013.3 |
| 20260510154326 | 78 | 163 | 3.0 | 11.0 | 0.00 | 0.00 | 0.00 | 76 | 1015.7 |
| 20260510154054 | 78 | 149 | 6.0 | 9.0 | 0.00 | 0.00 | 0.00 | 76 | 1013.3 |
| 20260510153823 | 79 | 154 | 4.0 | 9.0 | 0.00 | 0.00 | 0.00 | 77 | 1015.8 |
| 20260510153547 | 78 | 77 | 5.0 | 9.0 | 0.00 | 0.00 | 0.00 | 77 | 1013.4 |
| 20260510153316 | 78 | 113 | 5.0 | 9.0 | 0.00 | 0.00 | 0.00 | 77 | 1015.9 |
| 20260510153041 | 78 | 37 | 4.0 | 10.0 | 0.00 | 0.00 | 0.00 | 78 | 1013.4 |
| 20260510152832 | 78 | 102 | 2.0 | 10.0 | 0.00 | 0.00 | 0.00 | 78 | 1015.9 |
| 20260510152531 | 77 | 118 | 5.0 | 10.0 | 0.00 | 0.00 | 0.00 | 78 | 1013.4 |
| 20260510152328 | 77 | 147 | 4.0 | 10.0 | 0.00 | 0.00 | 0.00 | 78 | 1015.9 |
| 20260510152013 | 77 | 68 | 4.0 | 14.0 | 0.00 | 0.00 | 0.00 | 79 | 1013.4 |
| 20260510151824 | 77 | 75 | 5.0 | 14.0 | 0.00 | 0.00 | 0.00 | 79 | 1015.9 |
| 20260510151504 | 76 | 61 | 5.0 | 14.0 | 0.00 | 0.00 | 0.00 | 79 | 1013.5 |
| 20260510151319 | 77 | 23 | 5.0 | 10.0 | 0.00 | 0.00 | 0.00 | 79 | 1015.9 |
| 20260510151057 | 76 | 83 | 3.0 | 8.0 | 0.00 | 0.00 | 0.00 | 79 | 1013.4 |
| 20260510150816 | 77 | 62 | 4.0 | 8.0 | 0.00 | 0.00 | 0.00 | 79 | 1015.9 |
| 20260510150547 | 76 | 112 | 3.0 | 10.0 | 0.00 | 0.00 | 0.00 | 79 | 1013.4 |
| 20260510150332 | 76 | 114 | 2.0 | 10.0 | 0.00 | 0.00 | 0.00 | 80 | 1016.0 |
| 20260510150043 | 76 | 60 | 3.0 | 10.0 | 0.00 | 0.00 | 0.00 | 80 | 1013.5 |
| 20260510145828 | 76 | 80 | 5.0 | 10.0 | 0.00 | 0.00 | 0.00 | 80 | 1016.0 |
| 20260510145530 | 75 | 43 | 4.0 | 10.0 | 0.00 | 0.00 | 0.00 | 80 | 1013.5 |
| 20260510145324 | 76 | 69 | 4.0 | 10.0 | 0.00 | 0.00 | 0.00 | 80 | 1016.0 |
| 20260510145022 | 75 | 73 | 4.0 | 10.0 | 0.00 | 0.00 | 0.00 | 80 | 1013.6 |
| 20260510144819 | 76 | 84 | 7.0 | 10.0 | 0.00 | 0.00 | 0.00 | 79 | 1015.8 |
| 20260510144521 | 75 | 51 | 4.0 | 10.0 | 0.00 | 0.00 | 0.00 | 80 | 1013.2 |
| 20260510144336 | 76 | 43 | 5.0 | 10.0 | 0.00 | 0.00 | 0.00 | 80 | 1015.9 |
| 20260510144038 | 75 | 32 | 4.0 | 8.0 | 0.00 | 0.00 | 0.00 | 80 | 1013.4 |
| 20260510143830 | 76 | 58 | 4.0 | 8.0 | 0.00 | 0.00 | 0.00 | 80 | 1015.9 |
| 20260510143528 | 75 | 45 | 4.0 | 6.0 | 0.00 | 0.00 | 0.00 | 80 | 1013.5 |
| 20260510143325 | 76 | 81 | 2.0 | 6.0 | 0.00 | 0.00 | 0.00 | 80 | 1016.0 |
| 20260510143019 | 75 | 92 | 2.0 | 8.0 | 0.00 | 0.00 | 0.00 | 80 | 1013.5 |
| 20260510142821 | 75 | 68 | 4.0 | 8.0 | 0.00 | 0.00 | 0.00 | 80 | 1015.9 |
| 20260510142503 | 75 | 58 | 3.0 | 7.0 | 0.00 | 0.00 | 0.00 | 80 | 1013.4 |
| 20260510142318 | 75 | 95 | 3.0 | 6.0 | 0.00 | 0.00 | 0.00 | 80 | 1015.9 |
| 20260510142058 | 75 | 103 | 3.0 | 6.0 | 0.00 | 0.00 | 0.00 | 80 | 1013.4 |
| 20260510141854 | 75 | 53 | 3.0 | 6.0 | 0.00 | 0.00 | 0.00 | 80 | 1015.8 |
| 20260510141529 | 74 | 93 | 1.0 | 6.0 | 0.00 | 0.00 | 0.00 | 81 | 1013.3 |
| 20260510141327 | 75 | 91 | 3.0 | 6.0 | 0.00 | 0.00 | 0.00 | 80 | 1015.7 |
| 20260510141012 | 74 | 75 | 3.0 | 6.0 | 0.00 | 0.00 | 0.00 | 81 | 1013.2 |
| 20260510140824 | 75 | 91 | 2.0 | 4.0 | 0.00 | 0.00 | 0.00 | 81 | 1015.6 |
| 20260510140503 | 74 | 71 | 2.0 | 4.0 | 0.00 | 0.00 | 0.00 | 81 | 1013.1 |
| 20260510140321 | 74 | 63 | 2.0 | 4.0 | 0.00 | 0.00 | 0.00 | 81 | 1015.5 |
| 20260510140057 | 74 | 92 | 2.0 | 4.0 | 0.00 | 0.00 | 0.00 | 81 | 1013.1 |
| 20260510135816 | 74 | 84 | 3.0 | 4.0 | 0.00 | 0.00 | 0.00 | 82 | 1015.4 |
| 20260510135550 | 73 | 81 | 2.0 | 4.0 | 0.00 | 0.00 | 0.00 | 82 | 1013.0 |
| 20260510135314 | 73 | 85 | 2.0 | 4.0 | 0.00 | 0.00 | 0.00 | 82 | 1015.4 |
| 20260510135045 | 73 | 162 | 1.0 | 4.0 | 0.00 | 0.00 | 0.00 | 81 | 1013.0 |
| 20260510134828 | 73 | 133 | 3.0 | 7.0 | 0.00 | 0.00 | 0.00 | 81 | 1015.5 |
| 20260510134538 | 73 | 126 | 2.0 | 7.0 | 0.00 | 0.00 | 0.00 | 81 | 1013.1 |
| 20260510134324 | 73 | 141 | 3.0 | 7.0 | 0.00 | 0.00 | 0.00 | 81 | 1015.5 |
| 20260510134100 | 73 | 136 | 4.0 | 7.0 | 0.00 | 0.00 | 0.00 | 81 | 1013.0 |
| 20260510133821 | 73 | 154 | 3.0 | 6.0 | 0.00 | 0.00 | 0.00 | 81 | 1015.4 |
| 20260510133556 | 73 | 148 | 1.0 | 4.0 | 0.00 | 0.00 | 0.00 | 82 | 1013.0 |
| 20260510133319 | 73 | 110 | 1.0 | 4.0 | 0.00 | 0.00 | 0.00 | 82 | 1015.3 |
| 20260510133048 | 73 | 68 | 1.0 | 4.0 | 0.00 | 0.00 | 0.00 | 82 | 1012.9 |
| 20260510132816 | 73 | 68 | 1.0 | 3.0 | 0.00 | 0.00 | 0.00 | 82 | 1015.3 |
| 20260510132539 | 72 | 68 | 1.0 | 3.0 | 0.00 | 0.00 | 0.00 | 82 | 1012.8 |
| 20260510132330 | 73 | 67 | 1.0 | 2.0 | 0.00 | 0.00 | 0.00 | 83 | 1015.1 |
| 20260510132003 | 72 | 67 | 0.0 | 4.0 | 0.00 | 0.00 | 0.00 | 83 | 1012.5 |
| 20260510131827 | 72 | 68 | 1.0 | 4.0 | 0.00 | 0.00 | 0.00 | 84 | 1015.1 |
| 20260510131555 | 72 | 67 | 0.0 | 5.0 | 0.00 | 0.00 | 0.00 | 84 | 1012.5 |
| 20260510131343 | 72 | 68 | 0.0 | 5.0 | 0.00 | 0.00 | 0.00 | 84 | 1015.0 |
| 20260510131027 | 71 | 68 | 1.0 | 5.0 | 0.00 | 0.00 | 0.00 | 83 | 1012.4 |
| 20260510130816 | 72 | 67 | 3.0 | 5.0 | 0.00 | 0.00 | 0.00 | 83 | 1014.8 |
| 20260510130517 | 71 | 79 | 2.0 | 5.0 | 0.00 | 0.00 | 0.00 | 83 | 1012.3 |
| 20260510130332 | 72 | 79 | 2.0 | 5.0 | 0.00 | 0.00 | 0.00 | 83 | 1014.6 |
| 20260510130002 | 71 | 79 | 1.0 | 6.0 | 0.00 | 0.01 | 0.00 | 84 | 1012.3 |
| 20260510125829 | 71 | 79 | 2.0 | 6.0 | 0.00 | 0.01 | 0.00 | 84 | 1014.6 |
| 20260510125555 | 71 | 80 | 3.0 | 6.0 | 0.00 | 0.01 | 0.00 | 83 | 1012.2 |
| 20260510125326 | 71 | 53 | 3.0 | 6.0 | 0.00 | 0.01 | 0.00 | 84 | 1014.6 |
| 20260510125047 | 71 | 60 | 3.0 | 4.0 | 0.00 | 0.01 | 0.00 | 83 | 1012.1 |
| 20260510124821 | 71 | 54 | 2.0 | 4.0 | 0.00 | 0.01 | 0.00 | 84 | 1014.5 |
| 20260510124541 | 71 | 62 | 2.0 | 4.0 | 0.00 | 0.01 | 0.00 | 83 | 1011.9 |
| 20260510124317 | 71 | 79 | 2.0 | 3.0 | 0.00 | 0.01 | 0.00 | 84 | 1014.3 |
| 20260510124031 | 70 | 112 | 0.0 | 3.0 | 0.00 | 0.01 | 0.00 | 84 | 1011.7 |
| 20260510123832 | 71 | 158 | 1.0 | 3.0 | 0.00 | 0.01 | 0.00 | 83 | 1014.0 |
| 20260510123515 | 70 | 158 | 3.0 | 6.0 | 0.00 | 0.01 | 0.00 | 83 | 1011.4 |
| 20260510123328 | 71 | 158 | 3.0 | 6.0 | 0.00 | 0.01 | 0.00 | 83 | 1013.8 |
| 20260510123009 | 70 | 158 | 2.0 | 6.0 | 0.00 | 0.01 | 0.00 | 83 | 1011.3 |
| 20260510122824 | 71 | 110 | 2.0 | 4.0 | 0.00 | 0.01 | 0.00 | 83 | 1013.8 |
| 20260510122500 | 70 | 145 | 0.0 | 7.0 | 0.00 | 0.01 | 0.00 | 83 | 1011.2 |
| 20260510122342 | 70 | 145 | 0.0 | 8.0 | 0.00 | 0.01 | 0.00 | 83 | 1013.7 |
| 20260510122032 | 70 | 145 | 2.0 | 9.0 | 0.00 | 0.01 | 0.00 | 83 | 1011.2 |
| 20260510121818 | 70 | 127 | 4.0 | 9.0 | 0.00 | 0.01 | 0.00 | 83 | 1013.5 |
| 20260510121518 | 70 | 146 | 4.0 | 9.0 | 0.00 | 0.01 | 0.00 | 83 | 1010.8 |
| 20260510121354 | 70 | 149 | 6.0 | 9.0 | 0.00 | 0.01 | 0.00 | 83 | 1013.2 |
| 20260510121051 | 70 | 150 | 5.0 | 8.0 | 0.00 | 0.01 | 0.00 | 83 | 1010.7 |
| 20260510120828 | 71 | 168 | 6.0 | 8.0 | 0.00 | 0.01 | 0.00 | 83 | 1013.1 |
| 20260510120544 | 70 | 155 | 5.0 | 9.0 | 0.00 | 0.01 | 0.00 | 83 | 1010.5 |
| 20260510120323 | 71 | 186 | 5.0 | 10.0 | 0.00 | 0.01 | 0.00 | 83 | 1013.1 |
| 20260510120036 | 70 | 194 | 5.0 | 10.0 | 0.00 | 0.01 | 0.00 | 83 | 1010.5 |
| 20260510115820 | 71 | 205 | 5.0 | 10.0 | 0.00 | 0.01 | 0.00 | 83 | 1013.0 |
| 20260510115527 | 70 | 196 | 6.0 | 12.0 | 0.00 | 0.01 | 0.00 | 83 | 1010.5 |
| 20260510115316 | 71 | 160 | 6.0 | 12.0 | 0.00 | 0.01 | 0.00 | 83 | 1012.8 |
| 20260510115014 | 70 | 214 | 6.0 | 12.0 | 0.00 | 0.01 | 0.00 | 83 | 1010.3 |
| 20260510114832 | 71 | 199 | 7.0 | 12.0 | 0.00 | 0.01 | 0.00 | 83 | 1012.8 |
| 20260510114505 | 70 | 204 | 6.0 | 15.0 | 0.00 | 0.01 | 0.00 | 83 | 1010.2 |
| 20260510114328 | 71 | 193 | 7.0 | 15.0 | 0.00 | 0.01 | 0.00 | 83 | 1012.6 |
| 20260510114037 | 70 | 166 | 8.0 | 15.0 | 0.00 | 0.01 | 0.00 | 83 | 1010.1 |
| 20260510113845 | 70 | 222 | 9.0 | 15.0 | 0.00 | 0.01 | 0.00 | 83 | 1012.4 |
| 20260510113500 | 70 | 207 | 7.0 | 12.0 | 0.00 | 0.01 | 0.00 | 83 | 1010.0 |
| 20260510113319 | 70 | 210 | 7.0 | 12.0 | 0.00 | 0.01 | 0.00 | 84 | 1012.4 |
| 20260510113100 | 70 | 220 | 6.0 | 10.0 | 0.00 | 0.01 | 0.00 | 84 | 1010.2 |
| 20260510112815 | 70 | 214 | 6.0 | 10.0 | 0.00 | 0.01 | 0.00 | 84 | 1012.6 |
| 20260510112545 | 70 | 212 | 5.0 | 9.0 | 0.00 | 0.01 | 0.00 | 84 | 1010.3 |
| 20260510112327 | 70 | 218 | 6.0 | 8.0 | 0.00 | 0.01 | 0.00 | 84 | 1012.6 |
| 20260510112036 | 70 | 190 | 5.0 | 10.0 | 0.00 | 0.01 | 0.00 | 84 | 1010.2 |
| 20260510111824 | 70 | 214 | 6.0 | 10.0 | 0.00 | 0.01 | 0.00 | 84 | 1012.7 |
| 20260510111529 | 70 | 194 | 6.0 | 10.0 | 0.00 | 0.01 | 0.00 | 84 | 1010.3 |
| 20260510111319 | 70 | 225 | 6.0 | 10.0 | 0.00 | 0.01 | 0.00 | 84 | 1012.6 |
| 20260510111022 | 70 | 206 | 5.0 | 10.0 | 0.00 | 0.01 | 0.00 | 84 | 1010.2 |
| 20260510110816 | 70 | 210 | 7.0 | 10.0 | 0.00 | 0.01 | 0.00 | 84 | 1012.6 |
| 20260510110516 | 70 | 189 | 6.0 | 9.0 | 0.00 | 0.01 | 0.00 | 84 | 1010.3 |
| 20260510110333 | 70 | 191 | 6.0 | 9.0 | 0.00 | 0.01 | 0.00 | 84 | 1012.7 |
| 20260510110100 | 70 | 196 | 5.0 | 10.0 | 0.00 | 0.01 | 0.00 | 84 | 1010.3 |
| 20260510105830 | 70 | 201 | 6.0 | 10.0 | 0.00 | 0.01 | 0.00 | 84 | 1012.6 |
| 20260510105553 | 70 | 210 | 5.0 | 10.0 | 0.00 | 0.01 | 0.00 | 84 | 1010.2 |
| 20260510105326 | 70 | 217 | 5.0 | 9.0 | 0.00 | 0.01 | 0.00 | 84 | 1012.6 |
| 20260510105042 | 70 | 199 | 5.0 | 10.0 | 0.00 | 0.01 | 0.00 | 84 | 1010.1 |
| 20260510104821 | 71 | 201 | 5.0 | 10.0 | 0.00 | 0.01 | 0.00 | 84 | 1012.5 |
| 20260510104533 | 70 | 212 | 6.0 | 10.0 | 0.00 | 0.01 | 0.00 | 84 | 1010.2 |
| 20260510104337 | 71 | 204 | 6.0 | 8.0 | 0.00 | 0.01 | 0.00 | 84 | 1012.5 |
| 20260510104057 | 70 | 221 | 5.0 | 8.0 | 0.00 | 0.01 | 0.00 | 84 | 1010.2 |
| 20260510103833 | 71 | 220 | 5.0 | 9.0 | 0.00 | 0.01 | 0.00 | 84 | 1012.4 |
| 20260510103548 | 70 | 213 | 5.0 | 9.0 | 0.00 | 0.01 | 0.00 | 84 | 1010.0 |
| 20260510103329 | 71 | 226 | 5.0 | 9.0 | 0.00 | 0.01 | 0.00 | 84 | 1012.4 |
| 20260510103041 | 70 | 215 | 6.0 | 9.0 | 0.00 | 0.01 | 0.00 | 84 | 1010.1 |
| 20260510102824 | 71 | 210 | 6.0 | 9.0 | 0.00 | 0.01 | 0.00 | 84 | 1012.4 |
| 20260510102533 | 70 | 232 | 5.0 | 9.0 | 0.00 | 0.01 | 0.00 | 84 | 1010.1 |
| 20260510102321 | 71 | 210 | 5.0 | 8.0 | 0.00 | 0.01 | 0.00 | 84 | 1012.5 |
| 20260510102027 | 70 | 224 | 4.0 | 8.0 | 0.00 | 0.01 | 0.00 | 84 | 1010.1 |
| 20260510101815 | 71 | 210 | 5.0 | 8.0 | 0.00 | 0.01 | 0.00 | 84 | 1012.5 |
| 20260510101516 | 70 | 210 | 4.0 | 8.0 | 0.00 | 0.01 | 0.00 | 84 | 1010.1 |
| 20260510101332 | 71 | 214 | 5.0 | 8.0 | 0.00 | 0.01 | 0.00 | 84 | 1012.4 |
| 20260510101103 | 70 | 189 | 5.0 | 8.0 | 0.00 | 0.01 | 0.00 | 84 | 1010.0 |
| 20260510100828 | 71 | 220 | 5.0 | 8.0 | 0.00 | 0.01 | 0.00 | 84 | 1012.4 |
| 20260510100554 | 71 | 199 | 4.0 | 8.0 | 0.00 | 0.01 | 0.00 | 84 | 1009.9 |
| 20260510100345 | 71 | 213 | 5.0 | 9.0 | 0.00 | 0.01 | 0.00 | 84 | 1012.4 |
| 20260510100026 | 71 | 201 | 5.0 | 9.0 | 0.00 | 0.01 | 0.00 | 84 | 1009.9 |
| 20260510095821 | 71 | 211 | 6.0 | 9.0 | 0.00 | 0.01 | 0.00 | 84 | 1012.3 |
| 20260510095520 | 71 | 224 | 4.0 | 9.0 | 0.00 | 0.01 | 0.00 | 84 | 1009.9 |
| 20260510095316 | 71 | 218 | 6.0 | 9.0 | 0.00 | 0.01 | 0.00 | 84 | 1012.3 |
| 20260510095104 | 71 | 218 | 5.0 | 12.0 | 0.00 | 0.01 | 0.00 | 84 | 1009.9 |
| 20260510094853 | 71 | 212 | 5.0 | 12.0 | 0.00 | 0.01 | 0.00 | 84 | 1012.3 |
| 20260510094535 | 71 | 217 | 6.0 | 12.0 | 0.00 | 0.01 | 0.00 | 84 | 1009.9 |
| 20260510094326 | 72 | 207 | 6.0 | 10.0 | 0.00 | 0.01 | 0.00 | 84 | 1012.3 |
| 20260510094100 | 71 | 217 | 6.0 | 10.0 | 0.00 | 0.01 | 0.00 | 84 | 1010.0 |
| 20260510093822 | 72 | 226 | 6.0 | 10.0 | 0.00 | 0.01 | 0.00 | 84 | 1012.2 |
| 20260510093550 | 71 | 214 | 5.0 | 10.0 | 0.00 | 0.01 | 0.00 | 83 | 1009.9 |
| 20260510093320 | 72 | 225 | 6.0 | 10.0 | 0.00 | 0.01 | 0.00 | 83 | 1012.3 |
| 20260510093046 | 71 | 203 | 6.0 | 10.0 | 0.00 | 0.01 | 0.00 | 83 | 1010.1 |
| 20260510092815 | 72 | 198 | 6.0 | 9.0 | 0.00 | 0.01 | 0.00 | 83 | 1012.3 |
| 20260510092504 | 71 | 223 | 4.0 | 10.0 | 0.00 | 0.01 | 0.00 | 83 | 1010.0 |
| 20260510092331 | 72 | 179 | 5.0 | 10.0 | 0.00 | 0.01 | 0.00 | 83 | 1012.3 |
| 20260510092058 | 71 | 201 | 5.0 | 10.0 | 0.00 | 0.01 | 0.00 | 83 | 1010.0 |
| 20260510091828 | 72 | 202 | 6.0 | 10.0 | 0.00 | 0.01 | 0.00 | 83 | 1012.3 |
| 20260510091551 | 72 | 204 | 5.0 | 9.0 | 0.00 | 0.01 | 0.00 | 83 | 1010.0 |
| 20260510091323 | 72 | 193 | 5.0 | 9.0 | 0.00 | 0.01 | 0.00 | 83 | 1012.3 |
| 20260510091044 | 72 | 202 | 4.0 | 10.0 | 0.00 | 0.01 | 0.00 | 83 | 1009.9 |
| 20260510090820 | 72 | 231 | 4.0 | 10.0 | 0.00 | 0.01 | 0.00 | 83 | 1012.2 |
| 20260510090538 | 72 | 232 | 6.0 | 10.0 | 0.00 | 0.01 | 0.00 | 83 | 1009.8 |
| 20260510090315 | 72 | 237 | 6.0 | 15.0 | 0.00 | 0.01 | 0.00 | 82 | 1012.2 |
| 20260510090030 | 72 | 180 | 6.0 | 15.0 | 0.00 | 0.01 | 0.00 | 82 | 1009.8 |
| 20260510085830 | 72 | 185 | 6.0 | 15.0 | 0.00 | 0.01 | 0.00 | 82 | 1012.2 |
| 20260510085513 | 72 | 195 | 7.0 | 12.0 | 0.00 | 0.01 | 0.00 | 83 | 1009.8 |
| 20260510085327 | 72 | 183 | 6.0 | 11.0 | 0.00 | 0.01 | 0.00 | 83 | 1012.2 |
| 20260510085002 | 72 | 204 | 5.0 | 11.0 | 0.00 | 0.01 | 0.00 | 82 | 1009.8 |
| 20260510084844 | 72 | 182 | 6.0 | 11.0 | 0.00 | 0.01 | 0.00 | 83 | 1012.2 |
| 20260510084537 | 72 | 195 | 6.0 | 10.0 | 0.00 | 0.01 | 0.00 | 82 | 1010.0 |
| 20260510084335 | 72 | 191 | 7.0 | 10.0 | 0.00 | 0.01 | 0.00 | 82 | 1012.3 |
| 20260510084058 | 72 | 181 | 6.0 | 10.0 | 0.00 | 0.01 | 0.00 | 83 | 1010.0 |
| 20260510083831 | 72 | 184 | 6.0 | 9.0 | 0.00 | 0.01 | 0.00 | 83 | 1012.4 |
| 20260510083548 | 72 | 187 | 5.0 | 9.0 | 0.00 | 0.01 | 0.00 | 83 | 1010.2 |
| 20260510083327 | 72 | 165 | 5.0 | 9.0 | 0.00 | 0.01 | 0.00 | 82 | 1012.4 |
| 20260510083038 | 72 | 211 | 5.0 | 9.0 | 0.00 | 0.01 | 0.00 | 82 | 1010.1 |
| 20260510082826 | 72 | 185 | 6.0 | 9.0 | 0.00 | 0.01 | 0.00 | 82 | 1012.4 |
| 20260510082530 | 72 | 204 | 5.0 | 9.0 | 0.00 | 0.01 | 0.00 | 82 | 1009.9 |
| 20260510082323 | 72 | 191 | 7.0 | 11.0 | 0.00 | 0.01 | 0.00 | 82 | 1012.4 |
| 20260510082021 | 72 | 182 | 5.0 | 8.0 | 0.00 | 0.01 | 0.00 | 82 | 1010.0 |
| 20260510081818 | 72 | 199 | 6.0 | 8.0 | 0.00 | 0.01 | 0.00 | 82 | 1012.4 |
| 20260510081504 | 72 | 169 | 5.0 | 8.0 | 0.00 | 0.01 | 0.00 | 82 | 1010.1 |
| 20260510081314 | 72 | 166 | 6.0 | 8.0 | 0.00 | 0.01 | 0.00 | 82 | 1012.5 |
| 20260510081058 | 72 | 153 | 5.0 | 7.0 | 0.00 | 0.01 | 0.00 | 82 | 1010.2 |
| 20260510080831 | 73 | 155 | 5.0 | 7.0 | 0.00 | 0.01 | 0.00 | 82 | 1012.5 |
| 20260510080550 | 72 | 175 | 4.0 | 8.0 | 0.00 | 0.01 | 0.00 | 82 | 1010.2 |
| 20260510080327 | 72 | 178 | 4.0 | 8.0 | 0.00 | 0.01 | 0.00 | 82 | 1012.6 |
| 20260510080055 | 72 | 149 | 4.0 | 8.0 | 0.00 | 0.01 | 0.00 | 82 | 1010.0 |
| 20260510075825 | 72 | 176 | 5.0 | 8.0 | 0.00 | 0.01 | 0.00 | 82 | 1012.4 |
| 20260510075542 | 72 | 174 | 5.0 | 9.0 | 0.00 | 0.01 | 0.00 | 82 | 1010.0 |
| 20260510075320 | 72 | 183 | 5.0 | 8.0 | 0.00 | 0.01 | 0.00 | 82 | 1012.3 |
| 20260510075034 | 72 | 181 | 5.0 | 8.0 | 0.00 | 0.01 | 0.00 | 82 | 1009.9 |
| 20260510074837 | 72 | 172 | 5.0 | 8.0 | 0.00 | 0.01 | 0.00 | 82 | 1012.3 |
| 20260510074559 | 72 | 181 | 4.0 | 8.0 | 0.00 | 0.01 | 0.00 | 82 | 1010.0 |
| 20260510074352 | 72 | 190 | 5.0 | 8.0 | 0.00 | 0.01 | 0.00 | 82 | 1012.4 |
| 20260510074031 | 72 | 204 | 4.0 | 8.0 | 0.00 | 0.01 | 0.00 | 83 | 1010.0 |
| 20260510073827 | 72 | 166 | 5.0 | 8.0 | 0.00 | 0.01 | 0.00 | 83 | 1012.3 |
| 20260510073513 | 72 | 164 | 5.0 | 9.0 | 0.00 | 0.01 | 0.00 | 82 | 1010.0 |
| 20260510073324 | 73 | 165 | 6.0 | 9.0 | 0.00 | 0.01 | 0.00 | 82 | 1012.3 |
| 20260510073008 | 72 | 170 | 5.0 | 8.0 | 0.00 | 0.01 | 0.00 | 82 | 1010.0 |
| 20260510072820 | 73 | 174 | 6.0 | 8.0 | 0.00 | 0.01 | 0.00 | 82 | 1012.3 |
| 20260510072558 | 72 | 168 | 6.0 | 9.0 | 0.00 | 0.01 | 0.00 | 82 | 1009.9 |
| 20260510072316 | 73 | 179 | 7.0 | 10.0 | 0.00 | 0.01 | 0.00 | 82 | 1012.4 |
| 20260510072049 | 72 | 175 | 5.0 | 9.0 | 0.00 | 0.01 | 0.00 | 82 | 1010.0 |
| 20260510071832 | 73 | 184 | 6.0 | 9.0 | 0.00 | 0.01 | 0.00 | 82 | 1012.4 |
| 20260510071542 | 73 | 165 | 6.0 | 9.0 | 0.00 | 0.01 | 0.00 | 82 | 1009.9 |
| 20260510071348 | 73 | 185 | 7.0 | 10.0 | 0.00 | 0.01 | 0.00 | 82 | 1012.4 |
| 20260510071004 | 73 | 162 | 6.0 | 10.0 | 0.00 | 0.01 | 0.00 | 82 | 1010.0 |
| 20260510070823 | 73 | 166 | 6.0 | 10.0 | 0.00 | 0.01 | 0.00 | 82 | 1012.4 |
| 20260510070558 | 73 | 187 | 5.0 | 8.0 | 0.00 | 0.01 | 0.00 | 82 | 1010.1 |
| 20260510070319 | 73 | 181 | 6.0 | 7.0 | 0.00 | 0.01 | 0.00 | 82 | 1012.4 |
| 20260510070056 | 73 | 166 | 6.0 | 8.0 | 0.00 | 0.01 | 0.00 | 81 | 1010.1 |
| 20260510065814 | 74 | 160 | 6.0 | 8.0 | 0.00 | 0.01 | 0.00 | 81 | 1012.4 |
| 20260510065544 | 73 | 163 | 6.0 | 8.0 | 0.00 | 0.01 | 0.00 | 81 | 1010.1 |
| 20260510065331 | 74 | 147 | 5.0 | 7.0 | 0.00 | 0.01 | 0.00 | 81 | 1012.5 |
| 20260510065039 | 73 | 172 | 5.0 | 7.0 | 0.00 | 0.01 | 0.00 | 81 | 1010.2 |
| 20260510064847 | 74 | 160 | 6.0 | 7.0 | 0.00 | 0.01 | 0.00 | 81 | 1012.6 |
| 20260510064512 | 74 | 167 | 5.0 | 7.0 | 0.00 | 0.01 | 0.00 | 81 | 1010.1 |
| 20260510064343 | 74 | 158 | 5.0 | 8.0 | 0.00 | 0.01 | 0.00 | 81 | 1012.5 |
| 20260510064036 | 74 | 152 | 5.0 | 8.0 | 0.00 | 0.01 | 0.00 | 81 | 1010.1 |
| 20260510063819 | 74 | 161 | 5.0 | 9.0 | 0.00 | 0.01 | 0.00 | 81 | 1012.5 |
| 20260510063530 | 74 | 151 | 4.0 | 9.0 | 0.00 | 0.01 | 0.00 | 81 | 1010.1 |
| 20260510063316 | 74 | 195 | 7.0 | 9.0 | 0.00 | 0.01 | 0.00 | 81 | 1012.5 |
| 20260510063014 | 74 | 179 | 5.0 | 9.0 | 0.00 | 0.01 | 0.00 | 81 | 1010.2 |
| 20260510062832 | 74 | 181 | 6.0 | 9.0 | 0.00 | 0.01 | 0.00 | 81 | 1012.5 |
| 20260510062506 | 74 | 164 | 6.0 | 10.0 | 0.00 | 0.01 | 0.00 | 81 | 1010.1 |
| 20260510062329 | 74 | 170 | 6.0 | 10.0 | 0.00 | 0.01 | 0.00 | 81 | 1012.5 |
| 20260510062100 | 74 | 170 | 5.0 | 11.0 | 0.00 | 0.01 | 0.00 | 81 | 1010.2 |
| 20260510061825 | 74 | 199 | 5.0 | 9.0 | 0.00 | 0.01 | 0.00 | 81 | 1012.5 |
| 20260510061554 | 74 | 186 | 5.0 | 9.0 | 0.00 | 0.01 | 0.00 | 81 | 1010.2 |
| 20260510061341 | 74 | 167 | 6.0 | 9.0 | 0.00 | 0.01 | 0.00 | 82 | 1012.6 |
| 20260510061024 | 74 | 166 | 6.0 | 10.0 | 0.00 | 0.01 | 0.00 | 82 | 1010.2 |
| 20260510060816 | 74 | 178 | 6.0 | 9.0 | 0.00 | 0.01 | 0.00 | 82 | 1012.6 |
| 20260510060508 | 73 | 197 | 5.0 | 9.0 | 0.00 | 0.01 | 0.00 | 82 | 1010.2 |
| 20260510060328 | 74 | 156 | 5.0 | 9.0 | 0.00 | 0.01 | 0.00 | 82 | 1012.5 |
| 20260510060106 | 73 | 176 | 4.0 | 9.0 | 0.00 | 0.01 | 0.00 | 82 | 1010.2 |
| 20260510055844 | 74 | 168 | 4.0 | 7.0 | 0.00 | 0.01 | 0.00 | 82 | 1012.6 |
| 20260510055522 | 74 | 163 | 5.0 | 9.0 | 0.00 | 0.01 | 0.00 | 82 | 1010.2 |
| 20260510055320 | 74 | 172 | 5.0 | 9.0 | 0.00 | 0.01 | 0.00 | 82 | 1012.6 |
| 20260510055017 | 73 | 168 | 6.0 | 9.0 | 0.00 | 0.01 | 0.00 | 82 | 1010.2 |
| 20260510054816 | 74 | 174 | 5.0 | 9.0 | 0.00 | 0.01 | 0.00 | 82 | 1012.4 |
| 20260510054606 | 73 | 166 | 5.0 | 9.0 | 0.00 | 0.01 | 0.00 | 82 | 1010.1 |
| 20260510054331 | 74 | 181 | 5.0 | 10.0 | 0.00 | 0.01 | 0.00 | 82 | 1012.4 |
| 20260510054055 | 73 | 191 | 5.0 | 8.0 | 0.00 | 0.01 | 0.00 | 82 | 1010.1 |
| 20260510053827 | 74 | 169 | 5.0 | 9.0 | 0.00 | 0.01 | 0.00 | 82 | 1012.5 |
| 20260510053548 | 73 | 163 | 4.0 | 9.0 | 0.00 | 0.01 | 0.00 | 82 | 1010.0 |
| 20260510053344 | 74 | 187 | 4.0 | 9.0 | 0.00 | 0.01 | 0.00 | 82 | 1012.5 |
| 20260510053037 | 73 | 174 | 5.0 | 9.0 | 0.00 | 0.01 | 0.00 | 82 | 1010.2 |
| 20260510052819 | 74 | 155 | 6.0 | 9.0 | 0.00 | 0.01 | 0.00 | 82 | 1012.3 |
| 20260510052503 | 73 | 181 | 4.0 | 10.0 | 0.00 | 0.01 | 0.00 | 81 | 1010.1 |
| 20260510052316 | 74 | 181 | 5.0 | 10.0 | 0.00 | 0.01 | 0.00 | 81 | 1012.4 |
| 20260510052056 | 73 | 165 | 6.0 | 10.0 | 0.00 | 0.01 | 0.00 | 81 | 1010.1 |
| 20260510051832 | 74 | 164 | 6.0 | 11.0 | 0.00 | 0.01 | 0.00 | 81 | 1012.4 |
| 20260510051552 | 73 | 168 | 5.0 | 9.0 | 0.00 | 0.01 | 0.00 | 81 | 1010.1 |
| 20260510051327 | 74 | 191 | 6.0 | 9.0 | 0.00 | 0.01 | 0.00 | 81 | 1012.5 |
| 20260510051039 | 73 | 162 | 5.0 | 9.0 | 0.00 | 0.01 | 0.00 | 81 | 1010.1 |
| 20260510050825 | 74 | 183 | 5.0 | 10.0 | 0.00 | 0.01 | 0.00 | 81 | 1012.5 |
| 20260510050532 | 73 | 190 | 6.0 | 9.0 | 0.00 | 0.01 | 0.00 | 81 | 1010.2 |
| 20260510050319 | 74 | 191 | 5.0 | 9.0 | 0.00 | 0.01 | 0.00 | 80 | 1012.5 |
| 20260510050118 | 73 | 177 | 5.0 | 7.0 | 0.00 | 0.01 | 0.00 | 80 | 1010.1 |
| 20260510045833 | 74 | 172 | 6.0 | 10.0 | 0.00 | 0.01 | 0.01 | 80 | 1012.5 |
| 20260510045542 | 73 | 181 | 5.0 | 10.0 | 0.00 | 0.01 | 0.01 | 80 | 1010.2 |
| 20260510045329 | 74 | 151 | 6.0 | 10.0 | 0.00 | 0.01 | 0.01 | 80 | 1012.6 |
| 20260510045030 | 73 | 185 | 5.0 | 10.0 | 0.00 | 0.01 | 0.01 | 79 | 1010.2 |
| 20260510044845 | 74 | 185 | 5.0 | 9.0 | 0.00 | 0.01 | 0.01 | 79 | 1012.4 |
| 20260510044557 | 73 | 165 | 4.0 | 9.0 | 0.00 | 0.01 | 0.01 | 79 | 1010.1 |
| 20260510044320 | 74 | 164 | 5.0 | 9.0 | 0.00 | 0.01 | 0.01 | 79 | 1012.4 |
| 20260510044026 | 73 | 183 | 4.0 | 7.0 | 0.00 | 0.01 | 0.01 | 79 | 1010.2 |
| 20260510043815 | 74 | 176 | 5.0 | 8.0 | 0.00 | 0.01 | 0.01 | 79 | 1012.4 |
| 20260510043510 | 73 | 181 | 3.0 | 6.0 | 0.00 | 0.01 | 0.01 | 78 | 1010.2 |
| 20260510043330 | 74 | 174 | 4.0 | 7.0 | 0.00 | 0.01 | 0.01 | 78 | 1012.4 |
| 20260510043002 | 73 | 174 | 4.0 | 7.0 | 0.00 | 0.01 | 0.01 | 78 | 1010.2 |
| 20260510042846 | 74 | 174 | 3.0 | 6.0 | 0.00 | 0.01 | 0.01 | 78 | 1012.5 |
| 20260510042539 | 73 | 191 | 3.0 | 6.0 | 0.00 | 0.01 | 0.01 | 77 | 1010.2 |
| 20260510042340 | 74 | 174 | 3.0 | 6.0 | 0.00 | 0.01 | 0.01 | 77 | 1012.3 |
| 20260510042102 | 73 | 174 | 3.0 | 6.0 | 0.00 | 0.01 | 0.01 | 77 | 1010.1 |
| 20260510041817 | 74 | 179 | 3.0 | 6.0 | 0.00 | 0.01 | 0.01 | 77 | 1012.4 |
| 20260510041552 | 74 | 182 | 3.0 | 6.0 | 0.00 | 0.01 | 0.01 | 76 | 1010.2 |
| 20260510041331 | 74 | 192 | 4.0 | 5.0 | 0.00 | 0.01 | 0.01 | 76 | 1012.6 |
| 20260510041052 | 74 | 176 | 4.0 | 5.0 | 0.00 | 0.01 | 0.01 | 76 | 1010.2 |
| 20260510040822 | 74 | 195 | 4.0 | 5.0 | 0.00 | 0.01 | 0.01 | 76 | 1012.5 |
| 20260510040523 | 74 | 181 | 2.0 | 4.0 | 0.00 | 0.01 | 0.01 | 76 | 1010.2 |
| 20260510040318 | 74 | 182 | 3.0 | 4.0 | 0.00 | 0.01 | 0.01 | 76 | 1012.5 |
| 20260510040016 | 74 | 181 | 2.0 | 4.0 | 0.00 | 0.01 | 0.01 | 75 | 1010.2 |
| 20260510035834 | 74 | 182 | 3.0 | 4.0 | 0.00 | 0.01 | 0.01 | 75 | 1012.4 |
| 20260510035603 | 74 | 181 | 2.0 | 4.0 | 0.00 | 0.01 | 0.01 | 75 | 1010.2 |
| 20260510035330 | 75 | 182 | 2.0 | 5.0 | 0.00 | 0.01 | 0.01 | 75 | 1012.4 |
| 20260510035053 | 74 | 181 | 2.0 | 5.0 | 0.00 | 0.01 | 0.01 | 75 | 1010.2 |
| 20260510034826 | 75 | 181 | 3.0 | 5.0 | 0.00 | 0.01 | 0.01 | 75 | 1012.4 |
| 20260510034604 | 74 | 181 | 2.0 | 5.0 | 0.00 | 0.01 | 0.01 | 74 | 1010.1 |
| 20260510034322 | 75 | 182 | 2.0 | 4.0 | 0.00 | 0.01 | 0.01 | 74 | 1012.4 |
| 20260510034040 | 74 | 181 | 2.0 | 4.0 | 0.00 | 0.01 | 0.01 | 74 | 1010.1 |
| 20260510033817 | 75 | 182 | 3.0 | 4.0 | 0.00 | 0.01 | 0.01 | 74 | 1012.4 |
| 20260510033538 | 75 | 181 | 2.0 | 4.0 | 0.00 | 0.01 | 0.01 | 74 | 1010.0 |
| 20260510033332 | 75 | 182 | 2.0 | 4.0 | 0.00 | 0.01 | 0.01 | 74 | 1012.4 |
| 20260510033020 | 75 | 181 | 2.0 | 4.0 | 0.00 | 0.01 | 0.01 | 74 | 1010.1 |
| 20260510032848 | 75 | 181 | 2.0 | 4.0 | 0.00 | 0.01 | 0.01 | 74 | 1012.3 |
| 20260510032554 | 75 | 182 | 2.0 | 3.0 | 0.00 | 0.01 | 0.01 | 74 | 1010.0 |
| 20260510032343 | 76 | 182 | 1.0 | 3.0 | 0.00 | 0.01 | 0.01 | 74 | 1012.4 |
| 20260510032026 | 75 | 182 | 0.0 | 0.0 | 0.00 | 0.01 | 0.01 | 73 | 1010.0 |
| 20260510031818 | 76 | 181 | 0.0 | 0.0 | 0.00 | 0.01 | 0.01 | 73 | 1012.3 |
| 20260510031524 | 75 | 182 | 0.0 | 0.0 | 0.00 | 0.01 | 0.01 | 73 | 1010.1 |
| 20260510031315 | 76 | 182 | 0.0 | 0.0 | 0.00 | 0.01 | 0.01 | 73 | 1012.4 |
| 20260510031039 | 76 | 182 | 0.0 | 0.0 | 0.00 | 0.01 | 0.01 | 73 | 1010.0 |
| 20260510030851 | 76 | 182 | 0.0 | 0.0 | 0.00 | 0.01 | 0.01 | 73 | 1012.2 |
| 20260510030502 | 76 | 181 | 0.0 | 0.0 | 0.00 | 0.01 | 0.01 | 73 | 1009.9 |
| 20260510030324 | 76 | 181 | 0.0 | 0.0 | 0.00 | 0.01 | 0.01 | 73 | 1012.1 |
| 20260510030106 | 76 | 152 | 0.0 | 0.0 | 0.00 | 0.01 | 0.01 | 73 | 1009.8 |
| 20260510025839 | 77 | 152 | 0.0 | 0.0 | 0.00 | 0.01 | 0.01 | 73 | 1012.0 |
| 20260510025528 | 76 | 158 | 0.0 | 0.0 | 0.00 | 0.01 | 0.01 | 72 | 1009.7 |
| 20260510025314 | 77 | 138 | 0.0 | 0.0 | 0.00 | 0.01 | 0.01 | 72 | 1011.8 |
| 20260510025020 | 76 | 138 | 0.0 | 0.0 | 0.00 | 0.01 | 0.01 | 72 | 1009.6 |
| 20260510024831 | 77 | 138 | 0.0 | 0.0 | 0.00 | 0.01 | 0.01 | 72 | 1011.8 |
| 20260510024509 | 77 | 164 | 0.0 | 0.0 | 0.00 | 0.01 | 0.01 | 72 | 1009.6 |
| 20260510024328 | 77 | 164 | 0.0 | 0.0 | 0.00 | 0.01 | 0.01 | 71 | 1011.9 |
| 20260510024006 | 77 | 164 | 0.0 | 0.0 | 0.00 | 0.01 | 0.01 | 71 | 1009.5 |
| 20260510023845 | 77 | 157 | 0.0 | 0.0 | 0.00 | 0.01 | 0.01 | 71 | 1011.8 |
| 20260510023540 | 77 | 177 | 0.0 | 0.0 | 0.00 | 0.01 | 0.01 | 71 | 1009.5 |
| 20260510023317 | 78 | 177 | 0.0 | 0.0 | 0.00 | 0.01 | 0.01 | 70 | 1011.7 |
| 20260510023002 | 77 | 177 | 0.0 | 0.0 | 0.00 | 0.01 | 0.01 | 70 | 1009.3 |
| 20260510022833 | 78 | 177 | 0.0 | 0.0 | 0.00 | 0.01 | 0.01 | 69 | 1011.5 |
| 20260510022603 | 78 | 177 | 0.0 | 0.0 | 0.00 | 0.01 | 0.01 | 68 | 1009.1 |
| 20260510022323 | 79 | 177 | 0.0 | 0.0 | 0.00 | 0.01 | 0.01 | 68 | 1011.4 |
| 20260510022028 | 78 | 173 | 0.0 | 0.0 | 0.00 | 0.01 | 0.01 | 67 | 1009.0 |
| 20260510021819 | 79 | 188 | 0.0 | 0.0 | 0.00 | 0.01 | 0.01 | 66 | 1011.4 |
| 20260510021529 | 79 | 162 | 0.0 | 0.0 | 0.00 | 0.01 | 0.01 | 65 | 1009.1 |
| 20260510021316 | 80 | 154 | 0.0 | 0.0 | 0.00 | 0.01 | 0.01 | 65 | 1011.3 |
| 20260510021018 | 79 | 139 | 0.0 | 0.0 | 0.00 | 0.01 | 0.01 | 65 | 1009.1 |
| 20260510020832 | 80 | 140 | 0.0 | 0.0 | 0.00 | 0.01 | 0.01 | 65 | 1011.2 |
| 20260510020502 | 80 | 139 | 0.0 | 0.0 | 0.00 | 0.01 | 0.01 | 64 | 1008.8 |
| 20260510020329 | 80 | 140 | 0.0 | 0.0 | 0.00 | 0.01 | 0.01 | 64 | 1011.0 |
| 20260510020054 | 80 | 139 | 0.0 | 0.0 | 0.00 | 0.01 | 0.01 | 64 | 1008.7 |
| 20260510015824 | 81 | 140 | 0.0 | 0.0 | 0.00 | 0.01 | 0.01 | 64 | 1011.0 |
| 20260510015543 | 80 | 139 | 0.0 | 0.0 | 0.00 | 0.01 | 0.01 | 64 | 1008.6 |
| 20260510015321 | 81 | 141 | 0.0 | 0.0 | 0.00 | 0.01 | 0.01 | 63 | 1010.9 |
| 20260510015033 | 80 | 147 | 0.0 | 0.0 | 0.00 | 0.01 | 0.01 | 62 | 1008.7 |
| 20260510014815 | 81 | 193 | 0.0 | 0.0 | 0.00 | 0.01 | 0.01 | 62 | 1010.9 |
| 20260510014518 | 81 | 193 | 0.0 | 0.0 | 0.00 | 0.01 | 0.01 | 61 | 1008.6 |
| 20260510014353 | 81 | 193 | 0.0 | 0.0 | 0.00 | 0.01 | 0.01 | 60 | 1010.8 |
| 20260510014050 | 81 | 193 | 0.0 | 0.0 | 0.00 | 0.01 | 0.01 | 59 | 1008.5 |
| 20260510013826 | 82 | 193 | 0.0 | 0.0 | 0.00 | 0.01 | 0.01 | 58 | 1010.7 |
| 20260510013540 | 82 | 193 | 0.0 | 0.0 | 0.00 | 0.01 | 0.01 | 57 | 1008.6 |
| 20260510013322 | 82 | 193 | 0.0 | 0.0 | 0.00 | 0.01 | 0.01 | 57 | 1010.7 |
| 20260510013035 | 82 | 193 | 0.0 | 0.0 | 0.00 | 0.01 | 0.01 | 56 | 1008.4 |
| 20260510012817 | 83 | 193 | 0.0 | 0.0 | 0.00 | 0.01 | 0.01 | 56 | 1010.6 |
| 20260510012526 | 83 | 193 | 0.0 | 0.0 | 0.00 | 0.01 | 0.01 | 55 | 1008.2 |
| 20260510012333 | 83 | 193 | 0.0 | 0.0 | 0.00 | 0.01 | 0.01 | 54 | 1010.4 |
| 20260510012010 | 83 | 193 | 0.0 | 0.0 | 0.00 | 0.01 | 0.01 | 54 | 1008.1 |
| 20260510011827 | 84 | 193 | 0.0 | 0.0 | 0.00 | 0.01 | 0.01 | 54 | 1010.3 |
| 20260510011504 | 84 | 193 | 0.0 | 0.0 | 0.00 | 0.01 | 0.01 | 53 | 1008.1 |
| 20260510011322 | 84 | 193 | 0.0 | 0.0 | 0.00 | 0.01 | 0.01 | 53 | 1010.3 |
| 20260510011058 | 84 | 193 | 0.0 | 0.0 | 0.00 | 0.01 | 0.01 | 53 | 1008.1 |
| 20260510010839 | 85 | 193 | 0.0 | 0.0 | 0.00 | 0.01 | 0.01 | 53 | 1010.3 |
| 20260510010528 | 85 | 194 | 0.0 | 0.0 | 0.00 | 0.01 | 0.01 | 52 | 1008.1 |
| 20260510010333 | 85 | 193 | 0.0 | 0.0 | 0.00 | 0.01 | 0.01 | 52 | 1010.3 |
| 20260510010010 | 85 | 193 | 0.0 | 0.0 | 0.00 | 0.01 | 0.01 | 52 | 1008.1 |
| 20260510005829 | 86 | 193 | 0.0 | 0.0 | 0.00 | 0.01 | 0.01 | 52 | 1010.3 |
| 20260510005545 | 85 | 193 | 0.0 | 0.0 | 0.00 | 0.01 | 0.01 | 52 | 1008.1 |
| 20260510005324 | 86 | 193 | 0.0 | 0.0 | 0.00 | 0.01 | 0.01 | 52 | 1010.3 |
| 20260510005036 | 86 | 193 | 0.0 | 0.0 | 0.00 | 0.01 | 0.01 | 52 | 1008.1 |
| 20260510004840 | 86 | 193 | 0.0 | 0.0 | 0.00 | 0.01 | 0.01 | 52 | 1010.2 |
| 20260510004602 | 86 | 193 | 0.0 | 0.0 | 0.00 | 0.01 | 0.01 | 51 | 1008.1 |
| 20260510004316 | 87 | 193 | 0.0 | 0.0 | 0.00 | 0.01 | 0.01 | 51 | 1010.2 |
| 20260510004054 | 87 | 193 | 0.0 | 0.0 | 0.00 | 0.01 | 0.01 | 51 | 1008.0 |
| 20260510003832 | 87 | 193 | 0.0 | 0.0 | 0.00 | 0.01 | 0.01 | 51 | 1010.3 |
| 20260510003516 | 87 | 193 | 0.0 | 0.0 | 0.00 | 0.01 | 0.01 | 50 | 1008.0 |
| 20260510003328 | 87 | 193 | 0.0 | 0.0 | 0.00 | 0.01 | 0.01 | 50 | 1010.3 |
| 20260510003010 | 87 | 194 | 0.0 | 0.0 | 0.00 | 0.01 | 0.01 | 50 | 1008.1 |
| 20260510002825 | 87 | 193 | 0.0 | 0.0 | 0.00 | 0.01 | 0.01 | 50 | 1010.2 |
| 20260510002541 | 87 | 193 | 0.0 | 0.0 | 0.00 | 0.01 | 0.01 | 49 | 1008.0 |
| 20260510002342 | 87 | 193 | 0.0 | 0.0 | 0.00 | 0.01 | 0.01 | 49 | 1010.3 |
| 20260510002016 | 87 | 193 | 0.0 | 0.0 | 0.00 | 0.01 | 0.01 | 48 | 1008.0 |
| 20260510001818 | 87 | 194 | 0.0 | 0.0 | 0.00 | 0.01 | 0.01 | 47 | 1010.2 |
| 20260510001602 | 87 | 193 | 0.0 | 0.0 | 0.00 | 0.01 | 0.01 | 48 | 1008.0 |
| 20260510001329 | 87 | 194 | 0.0 | 0.0 | 0.00 | 0.01 | 0.01 | 47 | 1010.2 |
| 20260510001058 | 87 | 193 | 0.0 | 0.0 | 0.00 | 0.01 | 0.01 | 46 | 1007.9 |
| 20260510000826 | 87 | 193 | 0.0 | 0.0 | 0.00 | 0.01 | 0.01 | 48 | 1010.2 |
| 20260510000554 | 87 | 193 | 0.0 | 0.0 | 0.00 | 0.01 | 0.01 | 47 | 1008.0 |
| 20260510000344 | 87 | 193 | 0.0 | 0.0 | 0.00 | 0.01 | 0.01 | 47 | 1010.2 |
| 20260510000022 | 87 | 182 | 0.0 | 0.0 | 0.00 | 0.01 | 0.01 | 47 | 1008.0 |
| 20260509235818 | 87 | 170 | 0.0 | 0.0 | 0.00 | 0.01 | 0.01 | 47 | 1010.1 |
| 20260509235544 | 87 | 221 | 0.0 | 0.0 | 0.00 | 0.01 | 0.01 | 50 | 1007.8 |
| 20260509235400 | 88 | 221 | 0.0 | 0.0 | 0.00 | 0.01 | 0.01 | 48 | 1010.1 |
| 20260509235014 | 87 | 220 | 0.0 | 0.0 | 0.00 | 0.01 | 0.01 | 48 | 1007.9 |
| 20260509234829 | 88 | 220 | 0.0 | 0.0 | 0.00 | 0.01 | 0.01 | 47 | 1010.1 |
| 20260509234602 | 87 | 216 | 0.0 | 0.0 | 0.00 | 0.01 | 0.01 | 48 | 1007.9 |
| 20260509234328 | 88 | 218 | 0.0 | 0.0 | 0.00 | 0.01 | 0.01 | 48 | 1010.1 |
| 20260509234052 | 87 | 204 | 0.0 | 0.0 | 0.00 | 0.01 | 0.01 | 49 | 1007.9 |
| 20260509233825 | 88 | 224 | 0.0 | 0.0 | 0.00 | 0.01 | 0.01 | 48 | 1010.1 |
| 20260509233544 | 87 | 185 | 0.0 | 0.0 | 0.00 | 0.01 | 0.01 | 47 | 1007.9 |
| 20260509233320 | 88 | 175 | 0.0 | 0.0 | 0.00 | 0.01 | 0.01 | 47 | 1010.1 |
| 20260509233036 | 87 | 164 | 0.0 | 0.0 | 0.00 | 0.01 | 0.01 | 47 | 1007.9 |
| 20260509232816 | 88 | 171 | 0.0 | 0.0 | 0.00 | 0.01 | 0.01 | 48 | 1010.1 |
| 20260509232532 | 87 | 233 | 0.0 | 0.0 | 0.00 | 0.01 | 0.01 | 48 | 1008.0 |
| 20260509232332 | 88 | 172 | 0.0 | 0.0 | 0.00 | 0.01 | 0.01 | 48 | 1010.1 |
| 20260509232016 | 87 | 211 | 0.0 | 0.0 | 0.00 | 0.01 | 0.01 | 49 | 1007.9 |
| 20260509231828 | 88 | 190 | 0.0 | 0.0 | 0.00 | 0.01 | 0.01 | 49 | 1010.0 |
| 20260509231507 | 87 | 179 | 0.0 | 0.0 | 0.00 | 0.01 | 0.01 | 49 | 1007.9 |
| 20260509231324 | 88 | 189 | 0.0 | 0.0 | 0.00 | 0.01 | 0.01 | 49 | 1010.1 |
| 20260509231101 | 87 | 189 | 0.0 | 0.0 | 0.00 | 0.01 | 0.01 | 48 | 1007.9 |
| 20260509230822 | 88 | 214 | 0.0 | 0.0 | 0.00 | 0.01 | 0.01 | 47 | 1010.1 |
| 20260509230553 | 88 | 170 | 0.0 | 0.0 | 0.00 | 0.01 | 0.01 | 47 | 1007.9 |
| 20260509230320 | 89 | 190 | 0.0 | 0.0 | 0.00 | 0.01 | 0.01 | 48 | 1010.1 |
| 20260509230052 | 88 | 190 | 0.0 | 0.0 | 0.00 | 0.01 | 0.01 | 48 | 1007.9 |
| 20260509225853 | 89 | 236 | 0.0 | 2.0 | 0.00 | 0.01 | 0.01 | 47 | 1010.0 |
| 20260509225516 | 88 | 235 | 0.0 | 2.0 | 0.00 | 0.01 | 0.01 | 47 | 1007.9 |
| 20260509225330 | 89 | 237 | 0.0 | 2.0 | 0.00 | 0.01 | 0.01 | 47 | 1010.1 |
| 20260509225009 | 88 | 158 | 0.0 | 2.0 | 0.00 | 0.01 | 0.01 | 48 | 1007.9 |
| 20260509224825 | 89 | 158 | 0.0 | 5.0 | 0.00 | 0.01 | 0.01 | 48 | 1010.1 |
| 20260509224501 | 88 | 158 | 1.0 | 6.0 | 0.00 | 0.01 | 0.01 | 48 | 1007.9 |
| 20260509224322 | 88 | 158 | 1.0 | 6.0 | 0.00 | 0.01 | 0.01 | 47 | 1010.0 |
| 20260509224051 | 88 | 158 | 4.0 | 6.0 | 0.00 | 0.01 | 0.01 | 46 | 1007.9 |
| 20260509223814 | 89 | 206 | 3.0 | 6.0 | 0.00 | 0.01 | 0.01 | 47 | 1010.1 |
| 20260509223546 | 88 | 207 | 3.0 | 6.0 | 0.00 | 0.01 | 0.01 | 47 | 1007.9 |
| 20260509223352 | 89 | 198 | 1.0 | 3.0 | 0.00 | 0.01 | 0.01 | 48 | 1010.1 |
| 20260509223014 | 88 | 249 | 0.0 | 3.0 | 0.00 | 0.01 | 0.01 | 48 | 1007.9 |
| 20260509222827 | 89 | 249 | 0.0 | 3.0 | 0.00 | 0.01 | 0.01 | 47 | 1010.0 |
| 20260509222507 | 88 | 249 | 0.0 | 5.0 | 0.00 | 0.01 | 0.01 | 48 | 1007.9 |
| 20260509222324 | 89 | 282 | 1.0 | 6.0 | 0.00 | 0.01 | 0.01 | 48 | 1010.0 |
| 20260509222002 | 88 | 283 | 2.0 | 6.0 | 0.00 | 0.01 | 0.01 | 48 | 1008.0 |
| 20260509221841 | 89 | 287 | 3.0 | 6.0 | 0.00 | 0.01 | 0.01 | 48 | 1010.0 |
| 20260509221533 | 88 | 231 | 3.0 | 6.0 | 0.00 | 0.01 | 0.01 | 48 | 1007.9 |
| 20260509221316 | 89 | 240 | 2.0 | 7.0 | 0.00 | 0.01 | 0.01 | 49 | 1010.1 |
| 20260509221058 | 88 | 230 | 3.0 | 12.0 | 0.00 | 0.01 | 0.01 | 50 | 1008.0 |
| 20260509220831 | 89 | 220 | 3.0 | 12.0 | 0.00 | 0.01 | 0.01 | 50 | 1010.1 |
| 20260509220549 | 88 | 254 | 4.0 | 12.0 | 0.00 | 0.01 | 0.01 | 49 | 1008.0 |
| 20260509220325 | 89 | 247 | 4.0 | 14.0 | 0.00 | 0.01 | 0.01 | 48 | 1010.0 |
| 20260509220045 | 88 | 66 | 2.0 | 4.0 | 0.00 | 0.01 | 0.01 | 47 | 1008.0 |
| 20260509215838 | 89 | 233 | 1.0 | 6.0 | 0.00 | 0.01 | 0.01 | 48 | 1010.1 |
| 20260509215518 | 88 | 181 | 1.0 | 6.0 | 0.00 | 0.01 | 0.01 | 47 | 1008.0 |
| 20260509215332 | 89 | 181 | 3.0 | 6.0 | 0.00 | 0.01 | 0.01 | 47 | 1010.1 |
| 20260509215100 | 88 | 218 | 4.0 | 6.0 | 0.00 | 0.01 | 0.01 | 47 | 1008.0 |
| 20260509214828 | 89 | 194 | 2.0 | 7.0 | 0.00 | 0.01 | 0.01 | 48 | 1010.2 |
| 20260509214600 | 89 | 271 | 2.0 | 7.0 | 0.00 | 0.01 | 0.01 | 48 | 1008.1 |
| 20260509214324 | 89 | 238 | 3.0 | 7.0 | 0.00 | 0.01 | 0.01 | 48 | 1010.3 |
| 20260509214043 | 88 | 220 | 3.0 | 7.0 | 0.00 | 0.01 | 0.01 | 49 | 1008.1 |
| 20260509213820 | 89 | 199 | 3.0 | 7.0 | 0.00 | 0.01 | 0.01 | 49 | 1010.2 |
| 20260509213533 | 88 | 231 | 1.0 | 4.0 | 0.00 | 0.01 | 0.01 | 47 | 1008.1 |
| 20260509213336 | 88 | 231 | 0.0 | 4.0 | 0.00 | 0.01 | 0.01 | 48 | 1010.3 |
| 20260509213100 | 88 | 231 | 2.0 | 4.0 | 0.00 | 0.01 | 0.01 | 49 | 1008.2 |
| 20260509212830 | 88 | 162 | 1.0 | 6.0 | 0.00 | 0.01 | 0.01 | 49 | 1010.3 |
| 20260509212531 | 87 | 248 | 0.0 | 6.0 | 0.00 | 0.01 | 0.01 | 49 | 1008.3 |
| 20260509212325 | 88 | 249 | 0.0 | 6.0 | 0.00 | 0.01 | 0.01 | 48 | 1010.4 |
| 20260509212028 | 87 | 181 | 4.0 | 6.0 | 0.00 | 0.01 | 0.01 | 48 | 1008.3 |
| 20260509211823 | 88 | 160 | 2.0 | 6.0 | 0.00 | 0.01 | 0.01 | 48 | 1010.4 |
| 20260509211507 | 87 | 208 | 4.0 | 6.0 | 0.00 | 0.01 | 0.01 | 49 | 1008.4 |
| 20260509211318 | 88 | 198 | 4.0 | 6.0 | 0.00 | 0.01 | 0.01 | 49 | 1010.5 |
| 20260509211100 | 87 | 216 | 3.0 | 7.0 | 0.00 | 0.01 | 0.01 | 50 | 1008.4 |
| 20260509210854 | 88 | 271 | 2.0 | 7.0 | 0.00 | 0.01 | 0.01 | 51 | 1010.5 |
| 20260509210534 | 87 | 251 | 2.0 | 9.0 | 0.00 | 0.01 | 0.01 | 50 | 1008.5 |
| 20260509210329 | 87 | 250 | 3.0 | 9.0 | 0.00 | 0.01 | 0.01 | 50 | 1010.5 |
| 20260509210026 | 87 | 193 | 6.0 | 9.0 | 0.00 | 0.01 | 0.01 | 49 | 1008.5 |
| 20260509205824 | 87 | 183 | 3.0 | 8.0 | 0.00 | 0.01 | 0.01 | 50 | 1010.7 |
| 20260509205509 | 87 | 230 | 3.0 | 10.0 | 0.00 | 0.01 | 0.01 | 49 | 1008.6 |
| 20260509205322 | 87 | 282 | 5.0 | 10.0 | 0.00 | 0.01 | 0.01 | 50 | 1010.7 |
| 20260509205002 | 87 | 261 | 4.0 | 10.0 | 0.00 | 0.01 | 0.01 | 52 | 1008.8 |
| 20260509204818 | 87 | 268 | 5.0 | 9.0 | 0.00 | 0.01 | 0.01 | 51 | 1010.9 |
| 20260509204600 | 87 | 291 | 4.0 | 8.0 | 0.00 | 0.01 | 0.01 | 52 | 1008.8 |
| 20260509204333 | 87 | 295 | 3.0 | 8.0 | 0.00 | 0.01 | 0.01 | 52 | 1010.9 |
| 20260509204049 | 86 | 266 | 3.0 | 8.0 | 0.00 | 0.01 | 0.01 | 51 | 1009.0 |
| 20260509203829 | 87 | 327 | 2.0 | 8.0 | 0.00 | 0.01 | 0.01 | 52 | 1011.1 |
| 20260509203541 | 86 | 233 | 3.0 | 10.0 | 0.00 | 0.01 | 0.01 | 50 | 1009.1 |
| 20260509203325 | 87 | 253 | 3.0 | 10.0 | 0.00 | 0.01 | 0.01 | 53 | 1011.1 |
| 20260509203038 | 86 | 243 | 4.0 | 10.0 | 0.00 | 0.01 | 0.01 | 54 | 1009.0 |
| 20260509202821 | 87 | 265 | 4.0 | 10.0 | 0.00 | 0.01 | 0.01 | 54 | 1011.1 |
| 20260509202525 | 86 | 235 | 5.0 | 8.0 | 0.00 | 0.01 | 0.01 | 56 | 1009.1 |
| 20260509202317 | 87 | 248 | 4.0 | 8.0 | 0.00 | 0.01 | 0.01 | 57 | 1011.1 |
| 20260509202011 | 86 | 268 | 3.0 | 7.0 | 0.00 | 0.01 | 0.01 | 58 | 1009.1 |
| 20260509201854 | 86 | 310 | 3.0 | 6.0 | 0.00 | 0.01 | 0.01 | 58 | 1011.1 |
| 20260509201546 | 86 | 238 | 1.0 | 7.0 | 0.00 | 0.01 | 0.01 | 56 | 1009.0 |
| 20260509201329 | 86 | 136 | 4.0 | 7.0 | 0.00 | 0.01 | 0.01 | 56 | 1011.1 |
| 20260509201037 | 86 | 152 | 2.0 | 7.0 | 0.00 | 0.01 | 0.01 | 56 | 1009.2 |
| 20260509200826 | 86 | 246 | 3.0 | 10.0 | 0.00 | 0.01 | 0.01 | 56 | 1011.2 |
| 20260509200529 | 86 | 236 | 1.0 | 10.0 | 0.00 | 0.01 | 0.01 | 55 | 1009.3 |
| 20260509200321 | 86 | 218 | 5.0 | 10.0 | 0.00 | 0.01 | 0.01 | 55 | 1011.3 |
| 20260509200028 | 86 | 260 | 5.0 | 9.0 | 0.00 | 0.01 | 0.01 | 58 | 1009.3 |
| 20260509195817 | 86 | 220 | 4.0 | 9.0 | 0.00 | 0.01 | 0.01 | 58 | 1011.3 |
| 20260509195506 | 86 | 266 | 3.0 | 9.0 | 0.00 | 0.01 | 0.01 | 57 | 1009.3 |
| 20260509195332 | 86 | 306 | 4.0 | 9.0 | 0.00 | 0.01 | 0.01 | 57 | 1011.4 |
| 20260509195059 | 86 | 257 | 3.0 | 8.0 | 0.00 | 0.01 | 0.01 | 57 | 1009.5 |
| 20260509194828 | 86 | 263 | 3.0 | 7.0 | 0.00 | 0.01 | 0.01 | 58 | 1011.4 |